#timestamp,LO_Frequency,Hit,StdDev 
1546149615.3,286046994.9,P
1546149635.1,286046999.4,N
1546149655.9,286046999.2,N
1546149675.7,286046996.9,N
1546149695.6,286046999.1,N
1546149715.4,286046997.4,N
1546149735.2,286046996.1,N
1546149755.1,286046993.4,Y
1546149756.0,286046993.4,P
1546149775.8,286047000.9,N
1546149795.7,286046996.6,N
1546149815.5,286046996.6,N
1546149835.3,286046998.3,N
1546149855.2,286047001.2,N
1546149875.0,286047002.4,N
1546149875.9,286047002.4,N
1546149895.7,286047000.8,N
1546149915.6,286046998.7,N
1546149935.4,286046998.6,N
1546149955.3,286046998.5,N
1546149975.1,286046999.5,N
1546149995.8,286046997.0,N
1546150015.7,286046995.0,N
1546150035.5,286046995.4,N
1546150055.4,286046994.0,N
1546150075.2,286046994.7,N
1546150095.0,286046994.4,N
1546150095.9,286046994.4,N
1546150115.8,286046992.6,N
1546150135.6,286046990.1,Y
1546150155.4,286046994.1,P
1546150175.3,286046994.7,P
1546150195.1,286046994.4,P
1546150215.9,286046994.8,Y
1546150235.7,286046996.5,P
1546150255.5,286046996.7,P
1546150275.4,286046997.2,P
1546150295.2,286046997.6,Y
1546150315.1,286047000.7,P
1546150316.0,286047000.7,N
1546150335.8,286046999.6,N
1546150355.6,286046996.6,N
1546150375.5,286046997.6,N
1546150395.3,286046995.3,N
1546150415.1,286046997.5,N
1546150435.9,286046996.8,N
1546150455.7,286046997.2,N
1546150475.6,286046997.1,N
1546150495.4,286046999.2,N
1546150515.2,286046998.0,N
1546150535.1,286046998.0,N
1546150536.0,286046998.0,N
1546150555.8,286046996.9,N
1546150575.6,286046997.2,N
1546150595.5,286046997.1,N
1546150615.3,286046998.2,N
1546150635.2,286047000.4,N
1546150655.9,286047000.6,N
1546150675.7,286047000.6,N
1546150695.6,286046998.5,N
1546150715.4,286046998.3,N
1546150735.2,286046998.1,N
1546150755.1,286046999.3,N
1546150756.0,286046999.3,N
1546150775.8,286046998.2,N
1546150795.7,286047002.4,N
1546150815.5,286046998.5,N
1546150835.3,286046999.0,N
1546150855.2,286046998.5,N
1546150875.0,286046999.0,N
1546150875.9,286046999.0,N
1546150895.8,286046999.0,N
1546150915.6,286046998.8,N
1546150935.4,286046998.2,N
1546150955.3,286046999.5,N
1546150975.1,286046998.9,N
1546150995.8,286046998.5,N
1546151015.7,286046998.5,N
1546151035.5,286046999.0,N
1546151055.4,286046997.3,N
1546151075.2,286046997.3,N
1546151095.0,286046997.3,N
1546151095.9,286046997.3,N
1546151115.8,286046999.5,N
1546151135.6,286046996.9,N
1546151155.5,286046997.3,N
1546151175.3,286046997.5,N
1546151195.1,286046997.1,N
1546151215.9,286046997.2,N
1546151235.7,286046998.3,N
1546151255.5,286046998.3,N
1546151275.4,286047000.3,N
1546151295.2,286047002.3,N
1546151315.1,286047002.5,N
1546151316.0,286047002.5,N
1546151335.8,286047000.8,N
1546151355.6,286047002.8,N
1546151375.5,286047001.4,N
1546151395.3,286047004.3,N
1546151415.1,286047004.2,N
1546151435.9,286047004.2,N
1546151455.7,286047001.4,N
1546151475.6,286047002.3,N
1546151495.4,286047002.0,N
1546151515.2,286047004.1,N
1546151535.1,286047004.2,N
1546151536.0,286047004.2,N
1546151555.8,286047004.4,N
1546151575.7,286047003.3,N
1546151595.5,286047001.3,N
1546151615.3,286047004.4,N
1546151635.2,286047001.4,N
1546151655.0,286047003.5,N
1546151655.9,286047003.5,N
1546151675.7,286047003.4,N
1546151695.6,286047005.3,N
1546151715.4,286047005.3,N
1546151735.3,286047003.3,N
1546151755.1,286047001.4,N
1546151756.0,286047001.4,N
1546151775.8,286047001.4,N
1546151795.7,286047004.3,Y
1546151815.5,286046998.7,P
1546151835.3,286046998.4,N
1546151855.2,286046999.6,N
1546151875.0,286047000.0,N
1546151875.9,286047000.0,N
1546151895.8,286047000.6,N
1546151915.6,286047001.0,N
1546151935.4,286047002.8,N
1546151955.3,286047004.3,N
1546151975.1,286047002.0,N
1546151995.9,286047000.3,N
1546152015.7,286047000.1,N
1546152035.5,286047000.0,N
1546152055.4,286047001.0,N
1546152075.2,286047002.7,N
1546152095.0,286047002.7,N
1546152095.9,286047002.7,N
1546152115.8,286047001.8,N
1546152135.6,286047001.7,N
1546152155.5,286047002.1,N
1546152175.3,286047000.5,N
1546152195.1,286046999.7,N
1546152215.9,286047000.6,N
1546152235.7,286047003.9,N
1546152255.5,286047004.6,Y
1546152275.4,286047004.5,P
1546152295.2,286047004.0,N
1546152315.1,286047005.3,P
1546152316.0,286047005.3,Y
1546152335.8,286046998.8,P
1546152355.6,286046998.2,N
1546152375.5,286047001.0,N
1546152395.3,286047001.1,N
1546152415.2,286046999.0,N
1546152435.9,286046998.1,N
1546152455.7,286046998.8,N
1546152475.6,286046999.0,N
1546152495.4,286046998.4,N
1546152515.2,286047000.5,N
1546152535.1,286047001.2,N
1546152536.0,286047001.2,N
1546152555.8,286046998.1,N
1546152575.7,286046998.2,N
1546152595.5,286047001.2,N
1546152615.3,286046998.7,N
1546152635.2,286047000.0,N
1546152655.0,286047001.2,N
1546152655.9,286047001.2,N
1546152675.7,286047000.8,N
1546152695.6,286046996.5,N
1546152715.4,286046999.0,N
1546152735.3,286046997.1,N
1546152755.1,286046998.7,N
1546152756.0,286046998.7,N
1546152775.8,286047000.8,N
1546152795.7,286047000.5,N
1546152815.5,286047001.0,N
1546152835.3,286047000.6,N
1546152855.2,286046998.6,N
1546152875.0,286046998.1,N
1546152875.9,286046998.1,N
1546152895.8,286046996.5,N
1546152915.6,286046996.6,N
1546152935.4,286046997.2,N
1546152955.3,286046997.3,N
1546152975.1,286046994.9,Y
1546152995.9,286046995.4,P
1546153015.7,286046996.4,N
1546153035.5,286046995.6,N
1546153055.4,286046994.7,Y
1546153075.2,286046995.0,P
1546153095.1,286046995.3,P
1546153096.0,286046995.3,P
1546153115.8,286046997.9,Y
1546153135.6,286047000.3,P
1546153155.5,286047001.8,N
1546153175.3,286047004.4,N
1546153195.1,286047002.1,N
